Meeandah, Australia

1:52 AM AEST on September 27, 2017 (GMT +1000)
Meeandah

Weather History for 94578 - September, 2013

Change the Weather History Date:

Friday, September 27, 2013

  Actual Average Record
Temperature  
Mean Temperature 72 °F -  
Max Temperature 78 °F 78 °F - ()
Min Temperature 67 °F 60 °F - ()
Cooling Degree Days 8    
Growing Degree Days 22 (Base 50)    
Moisture  
Dew Point 59 °F    
Average Humidity 62    
Maximum Humidity 94    
Minimum Humidity 30    
Precipitation  
Precipitation 0.00 in 0.13 in - ()
Sea Level Pressure  
Sea Level Pressure 30.00 in    
Wind  
Wind Speed 9 mph ()    
Max Wind Speed 17 mph    
Max Gust Speed 29 mph    
Visibility 7.0 miles    
Events      
T = Trace of Precipitation, MM = Missing Value Source: Averaged Metar Reports

Daily Weather History Graph

Daily Weather History Graph

Search for Another Location

Airport or City:

Trip Planner

Search our weather history database for the weather conditions in past years. The results will help you decide how hot, cold, wet, or windy it might be!

Date:

Astronomy

Sep. 27, 2013 Rise Set
Actual Time 5:31 AM AEST 5:45 PM AEST
Civil Twilight 5:08 AM AEST 6:09 PM AEST
Nautical Twilight 4:41 AM AEST 6:36 PM AEST
Astronomical Twilight 4:13 AM AEST 7:03 PM AEST
Moon No Moon Rise 10:53 AM AEST (9/27)
Length of Visible Light 13h 00m
Length of Day
12h 14m
Waning Gibbous, 51% of the Moon is Illuminated
Sep 27
Waning Gibbous
Sep 27
Last Quarter
Oct 5
New
Oct 12
First Quarter
Oct 19
Full

Hourly Weather History & Observations

Time (AEST) Temp. Dew Point Humidity Pressure Visibility Wind Dir Wind Speed Gust Speed Precip Events Conditions
12:00 AM 70 °F 68 °F 93% 29.88 in 7 mi SSW 6.9 mph - -   Smoke
12:00 AM 69.8 °F 68.0 °F 94% 29.86 in - SSW 6.9 mph - N/A   Clear
12:30 AM 69.8 °F 68.0 °F 94% 29.86 in - SSW 5.8 mph - N/A   Clear
1:00 AM 69 °F 67 °F 93% 29.87 in - SSE 2.3 mph - -  
1:00 AM 69.8 °F 68.0 °F 94% 29.86 in 5.6 mi SSE 2.3 mph - N/A   Clear
1:30 AM 69.8 °F 68.0 °F 94% 29.86 in 5.6 mi South 1.2 mph - N/A   Clear
2:00 AM 69.8 °F 68.0 °F 94% 29.86 in 5.6 mi South 8.1 mph - N/A   Clear
2:30 AM 69.8 °F 68.0 °F 94% 29.86 in - South 8.1 mph - N/A   Clear
3:00 AM 69 °F 67 °F 91% 29.87 in 7 mi SSW 9.2 mph - -   Smoke
3:00 AM 69.8 °F 66.2 °F 88% 29.86 in - SSW 9.2 mph - N/A   Clear
3:30 AM 69.8 °F 68.0 °F 94% 29.89 in - South 10.4 mph - N/A   Clear
4:00 AM 69 °F 67 °F 89% 29.92 in - South 8.1 mph - -  
4:00 AM 69.8 °F 66.2 °F 88% 29.92 in - South 8.1 mph - N/A   Clear
4:30 AM 69.8 °F 64.4 °F 83% 29.92 in - South 5.8 mph - N/A   Clear
5:00 AM 69.8 °F 57.2 °F 64% 29.95 in - South 11.5 mph - N/A   Clear
5:30 AM 71.6 °F 53.6 °F 53% 29.95 in - South 10.4 mph - N/A   Clear
6:00 AM 71 °F 51 °F 39% 29.99 in 12 mi South 12.7 mph - -   Haze
6:00 AM 71.6 °F 51.8 °F 50% 29.98 in - South 12.7 mph - N/A   Clear
6:30 AM 71.6 °F 51.8 °F 50% 29.98 in - South 11.5 mph - N/A   Clear
7:00 AM 73 °F 53 °F 39% 30.02 in - South 12.7 mph - -  
7:00 AM 73.4 °F 53.6 °F 50% 30.01 in - South 12.7 mph - N/A   Clear
7:30 AM 75.2 °F 55.4 °F 50% 30.01 in - South 10.4 mph - N/A   Clear
8:00 AM 75.2 °F 53.6 °F 47% 30.04 in - SSE 11.5 mph - N/A   Clear
8:30 AM 77.0 °F 53.6 °F 44% 30.04 in - SE 16.1 mph - N/A   Clear
9:00 AM 77 °F 53 °F 33% 30.06 in 12 mi SE 13.8 mph - -   Haze
9:00 AM 77.0 °F 53.6 °F 44% 30.04 in - SE 13.8 mph - N/A   Clear
9:30 AM 77.0 °F 53.6 °F 44% 30.06 in - SE 13.8 mph 25.3 mph N/A   Clear
10:00 AM 78 °F 52 °F 30% 30.06 in - SE 13.8 mph - -  
10:00 AM 77.0 °F 51.8 °F 41% 30.06 in - SE 13.8 mph - N/A   Clear
10:30 AM 77.0 °F 53.6 °F 44% 30.04 in - SE 15.0 mph - N/A   Clear
11:00 AM 78.8 °F 53.6 °F 42% 30.04 in 6.2 mi SE 17.3 mph - N/A   Partly Cloudy
11:13 AM 77.0 °F 53.6 °F 44% 30.04 in - SE 17.3 mph 28.8 mph N/A   Clear
11:30 AM 77.0 °F 51.8 °F 41% 30.04 in 6.2 mi ESE 17.3 mph - N/A   Partly Cloudy
12:00 PM 77 °F 57 °F 40% 30.04 in 11 mi ESE 16.1 mph - -   Haze
12:00 PM 77.0 °F 57.2 °F 50% 30.04 in 6.2 mi ESE 16.1 mph - N/A   Partly Cloudy
12:30 PM 77.0 °F 53.6 °F 44% 30.01 in 6.2 mi ESE 16.1 mph - N/A   Partly Cloudy
1:00 PM 77 °F 60 °F 45% 30.03 in - ESE 16.1 mph - -  
1:03 PM 77.0 °F 59.0 °F 54% 30.01 in 6.2 mi ESE 17.3 mph 28.8 mph N/A   Partly Cloudy
1:30 PM 75.2 °F 59.0 °F 57% 30.01 in 6.2 mi ESE 15.0 mph - N/A   Partly Cloudy
2:00 PM 75.2 °F 59.0 °F 57% 30.01 in - ESE 16.1 mph - N/A   Clear
2:30 PM 75.2 °F 59.0 °F 57% 29.98 in - ESE 16.1 mph - N/A   Clear
3:00 PM 74 °F 59 °F 49% 29.99 in 9 mi ESE 15.0 mph - -   Haze
3:00 PM 73.4 °F 59.0 °F 61% 29.98 in - ESE 15.0 mph - N/A   Clear
3:30 PM 73.4 °F 59.0 °F 61% 29.98 in 6.2 mi ESE 16.1 mph - N/A   Partly Cloudy
4:00 PM 73 °F 58 °F 50% 30.01 in - ESE 15.0 mph - -  
4:00 PM 73.4 °F 59.0 °F 61% 30.01 in 6.2 mi ESE 15.0 mph - N/A   Partly Cloudy
4:30 PM 71.6 °F 57.2 °F 60% 30.01 in 6.2 mi ESE 12.7 mph - N/A   Partly Cloudy
5:00 PM 71.6 °F 59.0 °F 64% 30.04 in 6.2 mi ESE 12.7 mph - N/A   Partly Cloudy
5:30 PM 69.8 °F 57.2 °F 64% 30.04 in 6.2 mi East 10.4 mph - N/A   Partly Cloudy
6:00 PM 70 °F 58 °F 58% 30.05 in 8 mi East 11.5 mph - -   Haze
6:00 PM 69.8 °F 59.0 °F 68% 30.04 in 6.2 mi East 11.5 mph - N/A   Partly Cloudy
6:30 PM 69.8 °F 57.2 °F 64% 30.04 in 6.2 mi ESE 11.5 mph - N/A   Partly Cloudy
7:00 PM 69 °F 58 °F 60% 30.06 in - East 10.4 mph - -  
7:00 PM 69.8 °F 59.0 °F 68% 30.06 in 6.2 mi East 10.4 mph - N/A   Partly Cloudy
7:30 PM 69.8 °F 57.2 °F 64% 30.06 in 6.2 mi ESE 8.1 mph - N/A   Partly Cloudy
8:00 PM 69.8 °F 59.0 °F 68% 30.06 in 6.2 mi ESE 9.2 mph - N/A   Partly Cloudy
8:30 PM 69.8 °F 57.2 °F 64% 30.06 in 6.2 mi ESE 9.2 mph - N/A   Scattered Clouds
9:00 PM 69 °F 58 °F 60% 30.08 in 11 mi SE 10.4 mph - -   Haze
9:00 PM 69.8 °F 59.0 °F 68% 30.06 in 6.2 mi SE 10.4 mph - N/A   Scattered Clouds
9:30 PM 69.8 °F 59.0 °F 68% 30.06 in 6.2 mi SE 9.2 mph - N/A   Scattered Clouds
10:00 PM 69 °F 58 °F 60% 30.07 in - ESE 9.2 mph - -  
10:00 PM 69.8 °F 59.0 °F 68% 30.06 in 6.2 mi ESE 9.2 mph - N/A   Mostly Cloudy
10:30 PM 69.8 °F 59.0 °F 68% 30.06 in 6.2 mi ESE 8.1 mph - N/A   Mostly Cloudy
11:00 PM 68.0 °F 59.0 °F 73% 30.06 in 6.2 mi SSE 5.8 mph - N/A   Mostly Cloudy
11:30 PM 68.0 °F 59.0 °F 73% 30.04 in 6.2 mi SSE 3.5 mph - N/A   Mostly Cloudy